Time,TemperatureF,DewpointF,PressureIn,WindDirection,WindDirectionDegrees,WindSpeedMPH,WindSpeedGustMPH,Humidity,HourlyPrecipIn,Conditions,Clouds,dailyrainin,SolarRadiationWatts/m^2,SoftwareType,DateUTC
2013-11-15 00:00:00,40.9,30.1,29.87,South,188,6.0,7.0,65,0.00,,---,0.00,0.00,VWS V14.01,2013-11-15 06:00:00,
2013-11-15 00:01:00,40.9,30.1,29.87,SSW,194,6.0,6.0,65,0.00,,---,0.00,0.00,VWS V14.01,2013-11-15 06:01:00,
2013-11-15 00:06:00,40.8,30.0,29.87,SSW,195,4.0,7.0,65,0.00,,---,0.00,0.00,VWS V14.01,2013-11-15 06:06:00,
2013-11-15 00:11:00,40.8,30.0,29.87,SSW,195,4.0,7.0,65,0.00,,---,0.00,0.00,VWS V14.01,2013-11-15 06:11:00,
2013-11-15 00:16:00,40.8,30.0,29.87,SSW,193,1.0,8.0,65,0.00,,---,0.00,0.00,VWS V14.01,2013-11-15 06:16:00,
2013-11-15 00:21:00,40.8,30.3,29.87,SSW,193,5.0,9.0,66,0.00,,---,0.00,0.00,VWS V14.01,2013-11-15 06:21:00,
2013-11-15 00:26:00,40.6,30.1,29.87,SSW,194,6.0,9.0,66,0.00,,---,0.00,0.00,VWS V14.01,2013-11-15 06:26:00,
2013-11-15 00:30:00,40.6,30.1,29.87,SSW,194,5.0,9.0,66,0.00,,---,0.00,0.00,VWS V14.01,2013-11-15 06:30:00,
2013-11-15 00:31:00,40.5,30.4,29.87,SSW,194,5.0,8.0,67,0.00,,---,0.00,0.00,VWS V14.01,2013-11-15 06:31:00,
2013-11-15 00:36:00,40.5,30.4,29.87,South,191,7.0,8.0,67,0.00,,---,0.00,0.00,VWS V14.01,2013-11-15 06:36:00,
2013-11-15 00:41:00,40.3,30.6,29.87,SSW,196,5.0,8.0,68,0.00,,---,0.00,0.00,VWS V14.01,2013-11-15 06:41:00,
2013-11-15 00:46:00,40.3,30.6,29.87,SSW,205,3.0,8.0,68,0.00,,---,0.00,0.00,VWS V14.01,2013-11-15 06:46:00,
2013-11-15 00:51:00,40.3,30.6,29.87,SSW,202,6.0,8.0,68,0.00,,---,0.00,0.00,VWS V14.01,2013-11-15 06:51:00,
2013-11-15 00:57:00,40.1,30.8,29.87,SSW,202,5.0,8.0,69,0.00,,---,0.00,0.00,VWS V14.01,2013-11-15 06:57:00,
2013-11-15 01:00:00,40.1,30.8,29.87,SSW,202,7.0,8.0,69,0.00,,---,0.00,0.00,VWS V14.01,2013-11-15 07:00:00,
2013-11-15 01:02:00,39.9,30.6,29.87,SSW,202,4.0,7.0,69,0.00,,---,0.00,0.00,VWS V14.01,2013-11-15 07:02:00,
2013-11-15 01:07:00,39.9,30.6,29.87,SSW,198,4.0,7.0,69,0.00,,---,0.00,0.00,VWS V14.01,2013-11-15 07:07:00,
2013-11-15 01:12:00,39.8,30.5,29.87,SSW,198,5.0,7.0,69,0.00,,---,0.00,0.00,VWS V14.01,2013-11-15 07:12:00,
2013-11-15 01:17:00,39.8,30.8,29.87,SSW,198,3.0,7.0,70,0.00,,---,0.00,0.00,VWS V14.01,2013-11-15 07:17:00,
2013-11-15 01:22:00,39.8,30.8,29.87,SSW,198,3.0,7.0,70,0.00,,---,0.00,0.00,VWS V14.01,2013-11-15 07:22:00,
2013-11-15 01:27:00,39.6,30.6,29.87,SSW,198,4.0,7.0,70,0.00,,---,0.00,0.00,VWS V14.01,2013-11-15 07:27:00,
2013-11-15 01:30:00,39.6,30.6,29.87,SSW,198,7.0,7.0,70,0.00,,---,0.00,0.00,VWS V14.01,2013-11-15 07:30:00,
2013-11-15 01:32:00,39.5,30.5,29.87,SSW,194,6.0,7.0,70,0.00,,---,0.00,0.00,VWS V14.01,2013-11-15 07:32:00,
2013-11-15 01:37:00,39.5,30.5,29.87,SSW,195,5.0,7.0,70,0.00,,---,0.00,0.00,VWS V14.01,2013-11-15 07:37:00,
2013-11-15 01:42:00,39.3,30.7,29.87,SSW,195,3.0,7.0,71,0.00,,---,0.00,0.00,VWS V14.01,2013-11-15 07:42:00,
2013-11-15 01:47:00,39.2,30.6,29.87,SSW,205,4.0,7.0,71,0.00,,---,0.00,0.00,VWS V14.01,2013-11-15 07:47:00,
2013-11-15 01:52:00,39.2,30.6,29.87,SSW,211,4.0,7.0,71,0.00,,---,0.00,0.00,VWS V14.01,2013-11-15 07:52:00,
2013-11-15 01:57:00,38.9,30.3,29.87,SW,214,5.0,7.0,71,0.00,,---,0.00,0.00,VWS V14.01,2013-11-15 07:57:00,
2013-11-15 02:00:00,38.8,30.6,29.86,SW,214,4.0,7.0,72,0.00,,---,0.00,0.00,VWS V14.01,2013-11-15 08:00:00,
2013-11-15 02:02:00,38.8,30.6,29.86,SW,214,3.0,5.0,72,0.00,,---,0.00,0.00,VWS V14.01,2013-11-15 08:02:00,
2013-11-15 02:07:00,38.6,30.4,29.87,SW,214,1.0,5.0,72,0.00,,---,0.00,0.00,VWS V14.01,2013-11-15 08:07:00,
2013-11-15 02:12:00,38.5,30.6,29.87,SW,223,3.0,5.0,73,0.00,,---,0.00,0.00,VWS V14.01,2013-11-15 08:12:00,
2013-11-15 02:17:00,38.3,30.4,29.87,SW,225,2.0,5.0,73,0.00,,---,0.00,0.00,VWS V14.01,2013-11-15 08:17:00,
2013-11-15 02:22:00,38.2,30.3,29.86,SW,225,2.0,5.0,73,0.00,,---,0.00,0.00,VWS V14.01,2013-11-15 08:22:00,
2013-11-15 02:27:00,38.0,30.5,29.86,SW,225,3.0,5.0,74,0.00,,---,0.00,0.00,VWS V14.01,2013-11-15 08:27:00,
2013-11-15 02:30:00,38.0,30.5,29.86,SW,225,1.0,5.0,74,0.00,,---,0.00,0.00,VWS V14.01,2013-11-15 08:30:00,
2013-11-15 02:32:00,37.9,30.4,29.86,SW,225,4.0,4.0,74,0.00,,---,0.00,0.00,VWS V14.01,2013-11-15 08:32:00,
2013-11-15 02:37:00,37.8,30.3,29.86,SW,225,3.0,4.0,74,0.00,,---,0.00,0.00,VWS V14.01,2013-11-15 08:37:00,
2013-11-15 02:42:00,37.6,30.1,29.86,SW,225,3.0,5.0,74,0.00,,---,0.00,0.00,VWS V14.01,2013-11-15 08:42:00,
2013-11-15 02:47:00,37.6,30.4,29.86,SW,225,3.0,5.0,75,0.00,,---,0.00,0.00,VWS V14.01,2013-11-15 08:47:00,
2013-11-15 02:52:00,37.6,30.4,29.86,SW,225,4.0,5.0,75,0.00,,---,0.00,0.00,VWS V14.01,2013-11-15 08:52:00,
2013-11-15 02:57:00,37.5,30.3,29.85,SW,225,3.0,5.0,75,0.00,,---,0.00,0.00,VWS V14.01,2013-11-15 08:57:00,
2013-11-15 03:00:00,37.5,30.3,29.85,SW,225,3.0,5.0,75,0.00,,---,0.00,0.00,VWS V14.01,2013-11-15 09:00:00,
2013-11-15 03:02:00,37.5,30.3,29.85,SW,225,3.0,4.0,75,0.00,,---,0.00,0.00,VWS V14.01,2013-11-15 09:02:00,
2013-11-15 03:07:00,37.3,30.1,29.85,SW,225,2.0,5.0,75,0.00,,---,0.00,0.00,VWS V14.01,2013-11-15 09:07:00,
2013-11-15 03:12:00,37.2,30.0,29.85,SW,225,3.0,5.0,75,0.00,,---,0.00,0.00,VWS V14.01,2013-11-15 09:12:00,
2013-11-15 03:17:00,37.0,29.8,29.85,SW,225,4.0,5.0,75,0.00,,---,0.00,0.00,VWS V14.01,2013-11-15 09:17:00,
2013-11-15 03:22:00,36.9,29.7,29.84,SW,225,2.0,5.0,75,0.00,,---,0.00,0.00,VWS V14.01,2013-11-15 09:22:00,
2013-11-15 03:27:00,36.8,30.0,29.84,SW,225,3.0,5.0,76,0.00,,---,0.00,0.00,VWS V14.01,2013-11-15 09:27:00,
2013-11-15 03:30:00,36.6,29.8,29.84,SW,225,1.0,5.0,76,0.00,,---,0.00,0.00,VWS V14.01,2013-11-15 09:30:00,
2013-11-15 03:32:00,36.6,29.8,29.84,SW,225,0.0,2.0,76,0.00,,---,0.00,0.00,VWS V14.01,2013-11-15 09:32:00,
2013-11-15 03:37:00,36.5,29.7,29.84,SW,225,2.0,2.0,76,0.00,,---,0.00,0.00,VWS V14.01,2013-11-15 09:37:00,
2013-11-15 03:42:00,36.3,29.5,29.84,SW,225,2.0,3.0,76,0.00,,---,0.00,0.00,VWS V14.01,2013-11-15 09:42:00,
2013-11-15 03:47:00,36.0,29.5,29.84,SW,225,4.0,4.0,77,0.00,,---,0.00,0.00,VWS V14.01,2013-11-15 09:47:00,
2013-11-15 03:52:00,35.9,29.4,29.84,SSW,205,5.0,5.0,77,0.00,,---,0.00,0.00,VWS V14.01,2013-11-15 09:52:00,
2013-11-15 03:57:00,35.8,29.6,29.84,SSW,202,4.0,5.0,78,0.00,,---,0.00,0.00,VWS V14.01,2013-11-15 09:57:00,
2013-11-15 04:00:00,35.6,29.4,29.84,SSW,202,4.0,5.0,78,0.00,,---,0.00,0.00,VWS V14.01,2013-11-15 10:00:00,
2013-11-15 04:02:00,35.5,29.3,29.84,SSW,202,5.0,5.0,78,0.00,,---,0.00,0.00,VWS V14.01,2013-11-15 10:02:00,
2013-11-15 04:07:00,35.3,29.5,29.84,SSW,202,5.0,6.0,79,0.00,,---,0.00,0.00,VWS V14.01,2013-11-15 10:07:00,
2013-11-15 04:12:00,35.2,29.4,29.84,SSW,198,4.0,6.0,79,0.00,,---,0.00,0.00,VWS V14.01,2013-11-15 10:12:00,
2013-11-15 04:17:00,35.0,29.2,29.84,SSW,198,4.0,6.0,79,0.00,,---,0.00,0.00,VWS V14.01,2013-11-15 10:17:00,
2013-11-15 04:22:00,34.9,29.1,29.84,South,186,4.0,6.0,79,0.00,,---,0.00,0.00,VWS V14.01,2013-11-15 10:22:00,
2013-11-15 04:27:00,34.7,29.2,29.84,South,185,3.0,6.0,80,0.00,,---,0.00,0.00,VWS V14.01,2013-11-15 10:27:00,
2013-11-15 04:30:00,34.6,29.1,29.84,South,185,5.0,6.0,80,0.00,,---,0.00,0.00,VWS V14.01,2013-11-15 10:30:00,
2013-11-15 04:32:00,34.6,29.1,29.84,South,185,4.0,6.0,80,0.00,,---,0.00,0.00,VWS V14.01,2013-11-15 10:32:00,
2013-11-15 04:37:00,34.6,29.1,29.84,South,180,4.0,7.0,80,0.00,,---,0.00,0.00,VWS V14.01,2013-11-15 10:37:00,
2013-11-15 04:42:00,34.4,28.9,29.84,South,181,3.0,7.0,80,0.00,,---,0.00,0.00,VWS V14.01,2013-11-15 10:42:00,
2013-11-15 04:47:00,34.4,28.9,29.84,South,181,3.0,7.0,80,0.00,,---,0.00,0.00,VWS V14.01,2013-11-15 10:47:00,
2013-11-15 04:52:00,34.1,28.9,29.85,South,181,4.0,7.0,81,0.00,,---,0.00,0.00,VWS V14.01,2013-11-15 10:52:00,
2013-11-15 04:57:00,33.8,28.6,29.85,South,180,4.0,7.0,81,0.00,,---,0.00,0.00,VWS V14.01,2013-11-15 10:57:00,
2013-11-15 05:00:00,33.8,28.6,29.85,South,180,3.0,7.0,81,0.00,,---,0.00,0.00,VWS V14.01,2013-11-15 11:00:00,
2013-11-15 05:02:00,33.8,28.9,29.85,South,180,4.0,5.0,82,0.00,,---,0.00,0.00,VWS V14.01,2013-11-15 11:02:00,
2013-11-15 05:07:00,33.8,28.9,29.85,South,180,3.0,5.0,82,0.00,,---,0.00,0.00,VWS V14.01,2013-11-15 11:07:00,
2013-11-15 05:12:00,33.8,28.9,29.85,South,180,5.0,5.0,82,0.00,,---,0.00,0.00,VWS V14.01,2013-11-15 11:12:00,
2013-11-15 05:17:00,33.8,28.9,29.85,South,180,3.0,5.0,82,0.00,,---,0.00,0.00,VWS V14.01,2013-11-15 11:17:00,
2013-11-15 05:22:00,33.8,28.9,29.86,South,180,2.0,5.0,82,0.00,,---,0.00,0.00,VWS V14.01,2013-11-15 11:22:00,
2013-11-15 05:27:00,33.7,28.8,29.85,South,180,3.0,5.0,82,0.00,,---,0.00,0.00,VWS V14.01,2013-11-15 11:27:00,
2013-11-15 05:30:00,33.5,28.6,29.85,South,180,3.0,5.0,82,0.00,,---,0.00,0.00,VWS V14.01,2013-11-15 11:30:00,
2013-11-15 05:32:00,33.5,28.6,29.85,South,180,4.0,5.0,82,0.00,,---,0.00,0.00,VWS V14.01,2013-11-15 11:32:00,
2013-11-15 05:37:00,33.5,28.6,29.85,South,180,5.0,5.0,82,0.00,,---,0.00,0.00,VWS V14.01,2013-11-15 11:37:00,
2013-11-15 05:42:00,33.5,28.6,29.85,South,180,4.0,5.0,82,0.00,,---,0.00,0.00,VWS V14.01,2013-11-15 11:42:00,
2013-11-15 05:47:00,33.5,28.6,29.85,South,186,5.0,7.0,82,0.00,,---,0.00,0.00,VWS V14.01,2013-11-15 11:47:00,
2013-11-15 05:52:00,33.7,28.8,29.85,SSW,195,7.0,9.0,82,0.00,,---,0.00,0.00,VWS V14.01,2013-11-15 11:52:00,
2013-11-15 05:57:00,33.7,28.8,29.85,South,186,7.0,9.0,82,0.00,,---,0.00,0.00,VWS V14.01,2013-11-15 11:57:00,
2013-11-15 06:00:00,33.8,28.9,29.85,South,186,4.0,9.0,82,0.00,,---,0.00,0.00,VWS V14.01,2013-11-15 12:00:00,
2013-11-15 06:02:00,33.8,28.6,29.84,South,186,4.0,8.0,81,0.00,,---,0.00,0.00,VWS V14.01,2013-11-15 12:02:00,
2013-11-15 06:07:00,33.8,28.6,29.84,South,180,4.0,8.0,81,0.00,,---,0.00,0.00,VWS V14.01,2013-11-15 12:07:00,
2013-11-15 06:12:00,33.8,28.6,29.84,South,180,4.0,8.0,81,0.00,,---,0.00,0.00,VWS V14.01,2013-11-15 12:12:00,
2013-11-15 06:17:00,34.0,28.8,29.84,SSW,202,4.0,8.0,81,0.00,,---,0.00,0.00,VWS V14.01,2013-11-15 12:17:00,
2013-11-15 06:22:00,33.8,28.6,29.84,SSW,201,4.0,8.0,81,0.00,,---,0.00,0.00,VWS V14.01,2013-11-15 12:22:00,
2013-11-15 06:27:00,33.8,28.6,29.84,SSW,201,3.0,8.0,81,0.00,,---,0.00,0.00,VWS V14.01,2013-11-15 12:27:00,
2013-11-15 06:30:00,33.8,28.6,29.84,SSW,201,3.0,8.0,81,0.00,,---,0.00,0.00,VWS V14.01,2013-11-15 12:30:00,
2013-11-15 06:32:00,33.7,28.5,29.84,SSW,201,4.0,5.0,81,0.00,,---,0.00,0.00,VWS V14.01,2013-11-15 12:32:00,
2013-11-15 06:37:00,33.5,28.3,29.84,SSW,200,5.0,5.0,81,0.00,,---,0.00,0.00,VWS V14.01,2013-11-15 12:37:00,
2013-11-15 06:42:00,33.2,28.3,29.84,South,181,2.0,6.0,82,0.00,,---,0.00,0.00,VWS V14.01,2013-11-15 12:42:00,
2013-11-15 06:47:00,32.9,28.0,29.84,South,181,3.0,6.0,82,0.00,,---,0.00,0.00,VWS V14.01,2013-11-15 12:47:00,
2013-11-15 06:52:00,32.8,27.9,29.84,South,181,4.0,6.0,82,0.00,,---,0.00,0.00,VWS V14.01,2013-11-15 12:52:00,
2013-11-15 06:57:00,32.7,28.1,29.84,South,181,5.0,6.0,83,0.00,,---,0.00,0.00,VWS V14.01,2013-11-15 12:57:00,
2013-11-15 07:00:00,32.7,28.1,29.84,South,181,5.0,6.0,83,0.00,,---,0.00,0.00,VWS V14.01,2013-11-15 13:00:00,
2013-11-15 07:02:00,32.7,28.1,29.84,South,181,4.0,5.0,83,0.00,,---,0.00,0.00,VWS V14.01,2013-11-15 13:02:00,
2013-11-15 07:07:00,32.5,27.9,29.84,South,181,4.0,5.0,83,0.00,,---,0.00,0.00,VWS V14.01,2013-11-15 13:07:00,
2013-11-15 07:12:00,32.5,28.2,29.85,South,181,3.0,5.0,84,0.00,,---,0.00,5.00,VWS V14.01,2013-11-15 13:12:00,
2013-11-15 07:17:00,32.5,28.2,29.85,South,181,2.0,5.0,84,0.00,,---,0.00,7.00,VWS V14.01,2013-11-15 13:17:00,
2013-11-15 07:22:00,32.4,28.1,29.85,South,181,3.0,5.0,84,0.00,,---,0.00,11.00,VWS V14.01,2013-11-15 13:22:00,
2013-11-15 07:27:00,32.5,28.2,29.85,South,181,1.0,5.0,84,0.00,,---,0.00,18.00,VWS V14.01,2013-11-15 13:27:00,
2013-11-15 07:30:00,32.5,28.2,29.85,South,181,3.0,5.0,84,0.00,,---,0.00,19.00,VWS V14.01,2013-11-15 13:30:00,
2013-11-15 07:32:00,32.7,28.4,29.85,South,181,3.0,3.0,84,0.00,,---,0.00,23.00,VWS V14.01,2013-11-15 13:32:00,
2013-11-15 07:37:00,32.9,28.6,29.85,South,181,2.0,4.0,84,0.00,,---,0.00,32.00,VWS V14.01,2013-11-15 13:37:00,
2013-11-15 07:42:00,33.2,28.6,29.85,South,181,3.0,4.0,83,0.00,,---,0.00,40.00,VWS V14.01,2013-11-15 13:42:00,
2013-11-15 07:47:00,33.7,28.8,29.85,South,181,4.0,5.0,82,0.00,,---,0.00,51.00,VWS V14.01,2013-11-15 13:47:00,
2013-11-15 07:52:00,33.8,28.6,29.85,South,181,4.0,6.0,81,0.00,,---,0.00,65.00,VWS V14.01,2013-11-15 13:52:00,
2013-11-15 07:57:00,34.1,28.9,29.85,South,181,5.0,7.0,81,0.00,,---,0.00,74.00,VWS V14.01,2013-11-15 13:57:00,
2013-11-15 08:00:00,34.3,29.1,29.85,South,186,4.0,7.0,81,0.00,,---,0.00,76.00,VWS V14.01,2013-11-15 14:00:00,
2013-11-15 08:02:00,34.4,29.2,29.85,South,186,6.0,8.0,81,0.00,,---,0.00,93.00,VWS V14.01,2013-11-15 14:02:00,
2013-11-15 08:07:00,34.9,29.4,29.84,South,189,2.0,9.0,80,0.00,,---,0.00,105.00,VWS V14.01,2013-11-15 14:07:00,
2013-11-15 08:12:00,35.3,29.5,29.84,SSW,209,5.0,9.0,79,0.00,,---,0.00,125.00,VWS V14.01,2013-11-15 14:12:00,
2013-11-15 08:17:00,35.6,29.4,29.84,SSE,162,2.0,9.0,78,0.00,,---,0.00,141.00,VWS V14.01,2013-11-15 14:17:00,
2013-11-15 08:22:00,36.2,29.7,29.83,South,173,6.0,9.0,77,0.00,,---,0.00,160.00,VWS V14.01,2013-11-15 14:22:00,
2013-11-15 08:27:00,36.6,29.8,29.83,SSE,163,5.0,10.0,76,0.00,,---,0.00,172.00,VWS V14.01,2013-11-15 14:27:00,
2013-11-15 08:30:00,36.8,30.0,29.84,South,180,7.0,10.0,76,0.00,,---,0.00,179.00,VWS V14.01,2013-11-15 14:30:00,
2013-11-15 08:32:00,36.8,30.0,29.84,South,190,1.0,8.0,76,0.00,,---,0.00,186.00,VWS V14.01,2013-11-15 14:32:00,
2013-11-15 08:37:00,37.3,30.1,29.84,SSW,207,2.0,8.0,75,0.00,,---,0.00,200.00,VWS V14.01,2013-11-15 14:37:00,
2013-11-15 08:42:00,37.8,30.3,29.83,SSW,200,4.0,9.0,74,0.00,,---,0.00,214.00,VWS V14.01,2013-11-15 14:42:00,
2013-11-15 08:47:00,38.2,30.7,29.84,SSW,209,3.0,9.0,74,0.00,,---,0.00,230.00,VWS V14.01,2013-11-15 14:47:00,
2013-11-15 08:52:00,38.6,30.7,29.83,SSW,208,7.0,9.0,73,0.00,,---,0.00,244.00,VWS V14.01,2013-11-15 14:52:00,
2013-11-15 08:57:00,39.1,30.9,29.83,South,176,6.0,11.0,72,0.00,,---,0.00,260.00,VWS V14.01,2013-11-15 14:57:00,
2013-11-15 09:00:00,39.2,31.0,29.83,South,171,9.0,12.0,72,0.00,,---,0.00,269.00,VWS V14.01,2013-11-15 15:00:00,
2013-11-15 09:02:00,39.3,31.0,29.83,SSE,163,7.0,9.0,72,0.00,,---,0.00,272.00,VWS V14.01,2013-11-15 15:02:00,
2013-11-15 09:07:00,40.1,31.8,29.83,SSW,196,4.0,16.0,72,0.00,,---,0.00,290.00,VWS V14.01,2013-11-15 15:07:00,
2013-11-15 09:12:00,40.5,32.2,29.82,South,190,8.0,16.0,72,0.00,,---,0.00,318.00,VWS V14.01,2013-11-15 15:12:00,
2013-11-15 09:17:00,41.1,32.4,29.83,SW,216,7.0,16.0,71,0.00,,---,0.00,197.00,VWS V14.01,2013-11-15 15:17:00,
2013-11-15 09:22:00,41.3,32.6,29.83,SSW,205,3.0,16.0,71,0.00,,---,0.00,232.00,VWS V14.01,2013-11-15 15:22:00,
2013-11-15 09:27:00,41.6,32.9,29.83,SSW,208,2.0,16.0,71,0.00,,---,0.00,54.00,VWS V14.01,2013-11-15 15:27:00,
2013-11-15 09:30:00,41.8,33.1,29.83,SSE,168,2.0,16.0,71,0.00,,---,0.00,56.00,VWS V14.01,2013-11-15 15:30:00,
2013-11-15 09:32:00,42.2,33.5,29.83,South,183,4.0,10.0,71,0.00,,---,0.00,60.00,VWS V14.01,2013-11-15 15:32:00,
2013-11-15 09:37:00,42.8,33.3,29.82,South,174,9.0,11.0,69,0.00,,---,0.00,79.00,VWS V14.01,2013-11-15 15:37:00,
2013-11-15 09:42:00,43.2,33.7,29.82,SSW,197,6.0,14.0,69,0.00,,---,0.00,288.00,VWS V14.01,2013-11-15 15:42:00,
2013-11-15 09:47:00,43.6,33.8,29.83,SSW,209,9.0,14.0,68,0.00,,---,0.00,102.00,VWS V14.01,2013-11-15 15:47:00,
2013-11-15 09:52:00,43.6,33.8,29.83,SSW,194,8.0,14.0,68,0.00,,---,0.00,72.00,VWS V14.01,2013-11-15 15:52:00,
2013-11-15 09:57:00,44.1,34.2,29.83,SSW,194,9.0,14.0,68,0.00,,---,0.00,58.00,VWS V14.01,2013-11-15 15:57:00,
2013-11-15 10:00:00,44.5,34.2,29.83,SSW,205,9.0,14.0,67,0.00,,---,0.00,54.00,VWS V14.01,2013-11-15 16:00:00,
2013-11-15 10:02:00,44.8,34.5,29.82,SSE,165,7.0,13.0,67,0.00,,---,0.00,53.00,VWS V14.01,2013-11-15 16:02:00,
2013-11-15 10:07:00,45.5,34.8,29.83,South,174,4.0,13.0,66,0.00,,---,0.00,72.00,VWS V14.01,2013-11-15 16:07:00,
2013-11-15 10:12:00,46.2,34.7,29.83,South,174,7.0,13.0,64,0.00,,---,0.00,88.00,VWS V14.01,2013-11-15 16:12:00,
2013-11-15 10:17:00,46.4,34.9,29.83,SSW,198,8.0,16.0,64,0.00,,---,0.00,401.00,VWS V14.01,2013-11-15 16:17:00,
2013-11-15 10:22:00,46.5,34.6,29.83,SSW,213,11.0,16.0,63,0.00,,---,0.00,42.00,VWS V14.01,2013-11-15 16:22:00,
2013-11-15 10:27:00,47.0,34.7,29.82,South,181,4.0,16.0,62,0.00,,---,0.00,79.00,VWS V14.01,2013-11-15 16:27:00,
2013-11-15 10:30:00,47.4,35.5,29.82,South,175,5.0,16.0,63,0.00,,---,0.00,431.00,VWS V14.01,2013-11-15 16:30:00,
2013-11-15 10:32:00,47.9,35.5,29.81,SSW,200,6.0,11.0,62,0.00,,---,0.00,434.00,VWS V14.01,2013-11-15 16:32:00,
2013-11-15 10:37:00,47.7,34.9,29.81,South,180,12.0,15.0,61,0.00,,---,0.00,445.00,VWS V14.01,2013-11-15 16:37:00,
2013-11-15 10:42:00,47.7,34.9,29.81,SSW,198,5.0,15.0,61,0.00,,---,0.00,448.00,VWS V14.01,2013-11-15 16:42:00,
2013-11-15 10:47:00,48.2,35.4,29.81,SSE,152,9.0,15.0,61,0.00,,---,0.00,457.00,VWS V14.01,2013-11-15 16:47:00,
2013-11-15 10:52:00,48.3,34.7,29.81,SSE,153,12.0,21.0,59,0.00,,---,0.00,462.00,VWS V14.01,2013-11-15 16:52:00,
2013-11-15 10:57:00,48.9,35.2,29.81,SSW,203,8.0,21.0,59,0.00,,---,0.00,468.00,VWS V14.01,2013-11-15 16:57:00,
2013-11-15 11:00:00,49.1,35.0,29.80,SSE,148,14.0,21.0,58,0.00,,---,0.00,471.00,VWS V14.01,2013-11-15 17:00:00,
2013-11-15 11:02:00,49.1,35.4,29.80,South,180,11.0,18.0,59,0.00,,---,0.00,475.00,VWS V14.01,2013-11-15 17:02:00,
2013-11-15 11:07:00,49.6,35.5,29.80,SSE,150,13.0,18.0,58,0.00,,---,0.00,480.00,VWS V14.01,2013-11-15 17:07:00,
2013-11-15 11:12:00,50.2,35.6,29.80,SSE,158,12.0,18.0,57,0.00,,---,0.00,485.00,VWS V14.01,2013-11-15 17:12:00,
2013-11-15 11:17:00,50.4,35.8,29.80,SSW,211,10.0,19.0,57,0.00,,---,0.00,487.00,VWS V14.01,2013-11-15 17:17:00,
2013-11-15 11:22:00,51.0,35.9,29.80,South,171,15.0,19.0,56,0.00,,---,0.00,494.00,VWS V14.01,2013-11-15 17:22:00,
2013-11-15 11:27:00,51.3,35.7,29.80,South,171,18.0,19.0,55,0.00,,---,0.00,496.00,VWS V14.01,2013-11-15 17:27:00,
2013-11-15 11:30:00,51.3,35.7,29.80,SSE,149,12.0,19.0,55,0.00,,---,0.00,497.00,VWS V14.01,2013-11-15 17:30:00,
2013-11-15 11:32:00,51.4,35.8,29.80,SSE,149,12.0,17.0,55,0.00,,---,0.00,497.00,VWS V14.01,2013-11-15 17:32:00,
2013-11-15 11:37:00,52.0,35.9,29.80,SSE,166,15.0,19.0,54,0.00,,---,0.00,504.00,VWS V14.01,2013-11-15 17:37:00,
2013-11-15 11:42:00,52.2,36.1,29.79,SW,217,5.0,19.0,54,0.00,,---,0.00,506.00,VWS V14.01,2013-11-15 17:42:00,
2013-11-15 11:47:00,52.3,36.2,29.79,SE,134,9.0,21.0,54,0.00,,---,0.00,510.00,VWS V14.01,2013-11-15 17:47:00,
2013-11-15 11:52:00,52.5,35.9,29.79,SSW,201,12.0,23.0,53,0.00,,---,0.00,512.00,VWS V14.01,2013-11-15 17:52:00,
2013-11-15 11:57:00,52.8,36.2,29.78,South,178,17.0,23.0,53,0.00,,---,0.00,513.00,VWS V14.01,2013-11-15 17:57:00,
2013-11-15 12:00:00,52.6,36.0,29.78,SSW,193,7.0,23.0,53,0.00,,---,0.00,513.00,VWS V14.01,2013-11-15 18:00:00,
2013-11-15 12:02:00,52.9,36.2,29.78,SSW,203,5.0,19.0,53,0.00,,---,0.00,513.00,VWS V14.01,2013-11-15 18:02:00,
2013-11-15 12:07:00,53.2,36.0,29.77,SSE,157,15.0,19.0,52,0.00,,---,0.00,517.00,VWS V14.01,2013-11-15 18:07:00,
2013-11-15 12:12:00,53.3,36.1,29.77,SSW,211,8.0,19.0,52,0.00,,---,0.00,515.00,VWS V14.01,2013-11-15 18:12:00,
2013-11-15 12:17:00,53.8,36.1,29.76,SSE,161,15.0,19.0,51,0.00,,---,0.00,513.00,VWS V14.01,2013-11-15 18:17:00,
2013-11-15 12:22:00,53.6,35.9,29.76,SSE,153,10.0,20.0,51,0.00,,---,0.00,515.00,VWS V14.01,2013-11-15 18:22:00,
2013-11-15 12:27:00,53.8,36.6,29.76,SSE,165,13.0,20.0,52,0.00,,---,0.00,510.00,VWS V14.01,2013-11-15 18:27:00,
2013-11-15 12:30:00,53.9,36.2,29.76,SSE,160,9.0,20.0,51,0.00,,---,0.00,510.00,VWS V14.01,2013-11-15 18:30:00,
2013-11-15 12:32:00,53.9,36.2,29.76,SSE,166,11.0,19.0,51,0.00,,---,0.00,512.00,VWS V14.01,2013-11-15 18:32:00,
2013-11-15 12:37:00,54.2,36.5,29.76,South,180,20.0,21.0,51,0.00,,---,0.00,508.00,VWS V14.01,2013-11-15 18:37:00,
2013-11-15 12:42:00,54.5,36.3,29.76,South,184,10.0,21.0,50,0.00,,---,0.00,496.00,VWS V14.01,2013-11-15 18:42:00,
2013-11-15 12:47:00,55.0,36.7,29.75,South,174,10.0,21.0,50,0.00,,---,0.00,373.00,VWS V14.01,2013-11-15 18:47:00,
2013-11-15 12:52:00,55.6,36.8,29.75,SW,222,11.0,21.0,49,0.00,,---,0.00,139.00,VWS V14.01,2013-11-15 18:52:00,
2013-11-15 12:57:00,55.6,36.8,29.75,SSW,205,5.0,23.0,49,0.00,,---,0.00,44.00,VWS V14.01,2013-11-15 18:57:00,
2013-11-15 13:00:00,55.9,37.0,29.74,South,180,15.0,23.0,49,0.00,,---,0.00,39.00,VWS V14.01,2013-11-15 19:00:00,
2013-11-15 13:02:00,55.9,37.0,29.74,South,180,8.0,20.0,49,0.00,,---,0.00,39.00,VWS V14.01,2013-11-15 19:02:00,
2013-11-15 13:07:00,56.0,36.6,29.74,South,188,20.0,21.0,48,0.00,,---,0.00,37.00,VWS V14.01,2013-11-15 19:07:00,
2013-11-15 13:12:00,56.6,37.2,29.73,SSW,192,4.0,21.0,48,0.00,,---,0.00,37.00,VWS V14.01,2013-11-15 19:12:00,
2013-11-15 13:17:00,56.6,37.2,29.73,SSW,192,12.0,21.0,48,0.00,,---,0.00,37.00,VWS V14.01,2013-11-15 19:17:00,
2013-11-15 13:22:00,56.9,36.9,29.72,SSW,210,11.0,24.0,47,0.00,,---,0.00,37.00,VWS V14.01,2013-11-15 19:22:00,
2013-11-15 13:27:00,57.3,36.7,29.71,SSE,153,18.0,24.0,46,0.00,,---,0.00,35.00,VWS V14.01,2013-11-15 19:27:00,
2013-11-15 13:30:00,57.3,36.7,29.71,SW,221,12.0,24.0,46,0.00,,---,0.00,35.00,VWS V14.01,2013-11-15 19:30:00,
2013-11-15 13:32:00,57.3,36.7,29.70,South,191,17.0,21.0,46,0.00,,---,0.00,35.00,VWS V14.01,2013-11-15 19:32:00,
2013-11-15 13:37:00,57.5,36.9,29.70,SSE,167,10.0,21.0,46,0.00,,---,0.00,35.00,VWS V14.01,2013-11-15 19:37:00,
2013-11-15 13:42:00,57.5,36.9,29.70,South,182,9.0,22.0,46,0.00,,---,0.00,35.00,VWS V14.01,2013-11-15 19:42:00,
2013-11-15 13:47:00,57.6,36.4,29.70,SSE,149,11.0,22.0,45,0.00,,---,0.00,35.00,VWS V14.01,2013-11-15 19:47:00,
2013-11-15 13:52:00,58.0,36.8,29.70,South,177,19.0,24.0,45,0.00,,---,0.00,35.00,VWS V14.01,2013-11-15 19:52:00,
2013-11-15 13:57:00,58.1,36.9,29.70,SSW,194,10.0,24.0,45,0.00,,---,0.00,37.00,VWS V14.01,2013-11-15 19:57:00,
2013-11-15 14:00:00,58.4,36.6,29.70,SSE,149,11.0,24.0,44,0.00,,---,0.00,37.00,VWS V14.01,2013-11-15 20:00:00,
2013-11-15 14:02:00,58.1,36.9,29.70,SSE,163,17.0,22.0,45,0.00,,---,0.00,39.00,VWS V14.01,2013-11-15 20:02:00,
2013-11-15 14:07:00,58.4,36.6,29.69,SE,143,11.0,22.0,44,0.00,,---,0.00,40.00,VWS V14.01,2013-11-15 20:07:00,
2013-11-15 14:12:00,58.0,36.8,29.68,SSE,166,12.0,22.0,45,0.00,,---,0.00,40.00,VWS V14.01,2013-11-15 20:12:00,
2013-11-15 14:17:00,58.1,36.9,29.67,SSE,155,16.0,23.0,45,0.00,,---,0.00,60.00,VWS V14.01,2013-11-15 20:17:00,
2013-11-15 14:22:00,58.1,36.9,29.67,SSE,159,17.0,25.0,45,0.00,,---,0.00,58.00,VWS V14.01,2013-11-15 20:22:00,
2013-11-15 14:27:00,58.3,37.1,29.66,SSE,163,19.0,25.0,45,0.00,,---,0.00,70.00,VWS V14.01,2013-11-15 20:27:00,
2013-11-15 14:30:00,58.3,37.1,29.66,South,175,8.0,25.0,45,0.00,,---,0.00,56.00,VWS V14.01,2013-11-15 20:30:00,
2013-11-15 14:32:00,58.6,37.3,29.66,South,169,14.0,21.0,45,0.00,,---,0.00,51.00,VWS V14.01,2013-11-15 20:32:00,
2013-11-15 14:37:00,58.7,36.9,29.65,SE,132,14.0,23.0,44,0.00,,---,0.00,54.00,VWS V14.01,2013-11-15 20:37:00,
2013-11-15 14:42:00,58.9,37.6,29.65,SSE,155,15.0,23.0,45,0.00,,---,0.00,63.00,VWS V14.01,2013-11-15 20:42:00,
2013-11-15 14:47:00,58.9,37.0,29.65,South,182,22.0,23.0,44,0.00,,---,0.00,72.00,VWS V14.01,2013-11-15 20:47:00,
2013-11-15 14:52:00,58.9,37.0,29.65,South,172,14.0,23.0,44,0.00,,---,0.00,62.00,VWS V14.01,2013-11-15 20:52:00,
2013-11-15 14:57:00,59.0,37.1,29.65,SSE,153,12.0,23.0,44,0.00,,---,0.00,46.00,VWS V14.01,2013-11-15 20:57:00,
2013-11-15 15:00:00,59.2,37.3,29.65,SSE,162,19.0,23.0,44,0.00,,---,0.00,44.00,VWS V14.01,2013-11-15 21:00:00,
2013-11-15 15:02:00,59.0,37.1,29.65,South,179,11.0,23.0,44,0.00,,---,0.00,37.00,VWS V14.01,2013-11-15 21:02:00,
2013-11-15 15:07:00,58.9,37.0,29.65,SSE,157,11.0,23.0,44,0.00,,---,0.00,40.00,VWS V14.01,2013-11-15 21:07:00,
2013-11-15 15:12:00,59.0,37.1,29.65,South,186,9.0,23.0,44,0.00,,---,0.00,53.00,VWS V14.01,2013-11-15 21:12:00,
2013-11-15 15:17:00,59.2,37.3,29.65,South,185,9.0,23.0,44,0.00,,---,0.00,51.00,VWS V14.01,2013-11-15 21:17:00,
2013-11-15 15:22:00,59.0,37.7,29.64,SSE,148,14.0,23.0,45,0.00,,---,0.00,42.00,VWS V14.01,2013-11-15 21:22:00,
2013-11-15 15:27:00,58.6,37.9,29.64,SE,138,21.0,25.0,46,0.00,,---,0.00,35.00,VWS V14.01,2013-11-15 21:27:00,
2013-11-15 15:30:00,58.6,37.9,29.64,SE,133,15.0,25.0,46,0.00,,---,0.00,35.00,VWS V14.01,2013-11-15 21:30:00,
2013-11-15 15:32:00,58.4,37.7,29.62,South,172,16.0,27.0,46,0.00,,---,0.00,37.00,VWS V14.01,2013-11-15 21:32:00,
2013-11-15 15:37:00,58.6,37.9,29.63,SSE,157,15.0,27.0,46,0.00,,---,0.00,40.00,VWS V14.01,2013-11-15 21:37:00,
2013-11-15 15:42:00,58.6,37.9,29.62,SSE,156,18.0,27.0,46,0.00,,---,0.00,42.00,VWS V14.01,2013-11-15 21:42:00,
2013-11-15 15:48:00,58.4,37.7,29.62,SSE,155,14.0,27.0,46,0.00,,---,0.00,44.00,VWS V14.01,2013-11-15 21:48:00,
2013-11-15 15:53:00,58.3,37.6,29.62,SSE,165,14.0,27.0,46,0.00,,---,0.00,47.00,VWS V14.01,2013-11-15 21:53:00,
2013-11-15 15:58:00,58.1,38.0,29.62,SSE,159,13.0,27.0,47,0.00,,---,0.00,63.00,VWS V14.01,2013-11-15 21:58:00,
2013-11-15 16:00:00,58.1,38.0,29.62,South,181,16.0,27.0,47,0.00,,---,0.00,72.00,VWS V14.01,2013-11-15 22:00:00,
2013-11-15 16:03:00,58.1,38.0,29.62,South,178,10.0,20.0,47,0.00,,---,0.00,95.00,VWS V14.01,2013-11-15 22:03:00,
2013-11-15 16:08:00,58.4,37.7,29.62,South,171,19.0,20.0,46,0.00,,---,0.00,141.00,VWS V14.01,2013-11-15 22:08:00,
2013-11-15 16:13:00,58.6,37.9,29.63,SSE,150,10.0,23.0,46,0.00,,---,0.00,153.00,VWS V14.01,2013-11-15 22:13:00,
2013-11-15 16:18:00,58.6,37.9,29.63,SE,146,15.0,23.0,46,0.00,,---,0.00,148.00,VWS V14.01,2013-11-15 22:18:00,
2013-11-15 16:23:00,58.3,38.2,29.62,SSE,157,19.0,23.0,47,0.00,,---,0.00,76.00,VWS V14.01,2013-11-15 22:23:00,
2013-11-15 16:28:00,58.1,38.0,29.63,South,191,10.0,23.0,47,0.00,,---,0.00,53.00,VWS V14.01,2013-11-15 22:28:00,
2013-11-15 16:30:00,58.1,38.0,29.62,SSE,153,14.0,23.0,47,0.00,,---,0.00,47.00,VWS V14.01,2013-11-15 22:30:00,
2013-11-15 16:33:00,58.0,37.9,29.62,SSE,167,16.0,24.0,47,0.00,,---,0.00,40.00,VWS V14.01,2013-11-15 22:33:00,
2013-11-15 16:38:00,57.6,38.1,29.62,SSE,159,12.0,24.0,48,0.00,,---,0.00,30.00,VWS V14.01,2013-11-15 22:38:00,
2013-11-15 16:43:00,57.5,38.0,29.62,SSE,156,7.0,24.0,48,0.00,,---,0.00,26.00,VWS V14.01,2013-11-15 22:43:00,
2013-11-15 16:48:00,57.3,37.8,29.61,SSE,153,10.0,24.0,48,0.00,,---,0.00,25.00,VWS V14.01,2013-11-15 22:48:00,
2013-11-15 16:53:00,57.3,37.8,29.61,SSE,164,17.0,24.0,48,0.00,,---,0.00,46.00,VWS V14.01,2013-11-15 22:53:00,
2013-11-15 16:58:00,57.2,38.2,29.61,SSE,168,12.0,24.0,49,0.00,,---,0.00,25.00,VWS V14.01,2013-11-15 22:58:00,
2013-11-15 17:00:00,57.0,38.0,29.61,South,173,11.0,24.0,49,0.00,,---,0.00,21.00,VWS V14.01,2013-11-15 23:00:00,
2013-11-15 17:03:00,56.9,38.0,29.61,South,179,14.0,16.0,49,0.00,,---,0.00,16.00,VWS V14.01,2013-11-15 23:03:00,
2013-11-15 17:08:00,56.7,38.3,29.60,South,186,9.0,20.0,50,0.00,,---,0.00,12.00,VWS V14.01,2013-11-15 23:08:00,
2013-11-15 17:13:00,56.6,38.2,29.60,South,173,14.0,20.0,50,0.00,,---,0.00,5.00,VWS V14.01,2013-11-15 23:13:00,
2013-11-15 17:18:00,56.6,38.2,29.60,South,169,10.0,20.0,50,0.00,,---,0.00,0.00,VWS V14.01,2013-11-15 23:18:00,
2013-11-15 17:23:00,56.5,38.1,29.60,South,183,8.0,20.0,50,0.00,,---,0.00,0.00,VWS V14.01,2013-11-15 23:23:00,
2013-11-15 17:28:00,56.3,38.4,29.60,South,181,9.0,20.0,51,0.00,,---,0.00,0.00,VWS V14.01,2013-11-15 23:28:00,
2013-11-15 17:30:00,56.3,38.4,29.60,SSE,155,7.0,20.0,51,0.00,,---,0.00,0.00,VWS V14.01,2013-11-15 23:30:00,
2013-11-15 17:33:00,56.2,38.3,29.60,SSE,165,8.0,14.0,51,0.00,,---,0.00,0.00,VWS V14.01,2013-11-15 23:33:00,
2013-11-15 17:38:00,55.9,38.5,29.60,SE,146,9.0,14.0,52,0.00,,---,0.00,0.00,VWS V14.01,2013-11-15 23:38:00,
2013-11-15 17:43:00,55.9,38.5,29.60,South,175,10.0,14.0,52,0.00,,---,0.00,0.00,VWS V14.01,2013-11-15 23:43:00,
2013-11-15 17:48:00,55.7,38.4,29.60,South,185,6.0,17.0,52,0.00,,---,0.00,0.00,VWS V14.01,2013-11-15 23:48:00,
2013-11-15 17:53:00,55.7,38.8,29.60,South,171,8.0,17.0,53,0.00,,---,0.00,0.00,VWS V14.01,2013-11-15 23:53:00,
2013-11-15 17:58:00,55.7,38.8,29.60,SSE,165,6.0,17.0,53,0.00,,---,0.00,0.00,VWS V14.01,2013-11-15 23:58:00,
2013-11-15 18:00:00,55.7,38.8,29.60,South,174,7.0,17.0,53,0.00,,---,0.00,0.00,VWS V14.01,2013-11-16 00:00:00,
2013-11-15 18:03:00,55.6,38.8,29.60,SSE,162,8.0,11.0,53,0.00,,---,0.00,0.00,VWS V14.01,2013-11-16 00:03:00,
2013-11-15 18:08:00,55.4,39.0,29.60,South,175,7.0,13.0,54,0.00,,---,0.00,0.00,VWS V14.01,2013-11-16 00:08:00,
2013-11-15 18:13:00,55.3,39.4,29.60,SSE,168,10.0,14.0,55,0.00,,---,0.00,0.00,VWS V14.01,2013-11-16 00:13:00,
2013-11-15 18:18:00,55.0,39.2,29.60,SSE,154,7.0,14.0,55,0.00,,---,0.00,0.00,VWS V14.01,2013-11-16 00:18:00,
2013-11-15 18:23:00,54.7,39.3,29.60,SSE,164,10.0,14.0,56,0.00,,---,0.00,0.00,VWS V14.01,2013-11-16 00:23:00,
2013-11-15 18:28:00,54.5,39.6,29.61,South,169,10.0,14.0,57,0.00,,---,0.00,0.00,VWS V14.01,2013-11-16 00:28:00,
2013-11-15 18:30:00,54.4,39.5,29.60,SSE,161,9.0,14.0,57,0.00,,---,0.00,0.00,VWS V14.01,2013-11-16 00:30:00,
2013-11-15 18:33:00,54.2,39.3,29.61,SSE,157,11.0,14.0,57,0.00,,---,0.00,0.00,VWS V14.01,2013-11-16 00:33:00,
2013-11-15 18:38:00,53.9,39.5,29.61,SSE,167,8.0,15.0,58,0.00,,---,0.00,0.00,VWS V14.01,2013-11-16 00:38:00,
2013-11-15 18:43:00,53.9,39.9,29.61,SSE,150,8.0,15.0,59,0.00,,---,0.00,0.00,VWS V14.01,2013-11-16 00:43:00,
2013-11-15 18:48:00,53.8,39.8,29.61,SSE,154,7.0,15.0,59,0.00,,---,0.00,0.00,VWS V14.01,2013-11-16 00:48:00,
2013-11-15 18:53:00,53.6,40.1,29.61,SSE,161,7.0,15.0,60,0.00,,---,0.00,0.00,VWS V14.01,2013-11-16 00:53:00,
2013-11-15 18:58:00,53.5,40.0,29.60,SE,146,8.0,15.0,60,0.00,,---,0.00,0.00,VWS V14.01,2013-11-16 00:58:00,
2013-11-15 19:00:00,53.3,39.8,29.60,SSE,150,8.0,15.0,60,0.00,,---,0.00,0.00,VWS V14.01,2013-11-16 01:00:00,
2013-11-15 19:03:00,53.2,40.1,29.60,SSE,155,7.0,10.0,61,0.00,,---,0.00,0.00,VWS V14.01,2013-11-16 01:03:00,
2013-11-15 19:08:00,53.2,40.5,29.60,SSE,165,8.0,12.0,62,0.00,,---,0.00,0.00,VWS V14.01,2013-11-16 01:08:00,
2013-11-15 19:13:00,52.9,40.2,29.60,SSE,160,7.0,12.0,62,0.00,,---,0.00,0.00,VWS V14.01,2013-11-16 01:13:00,
2013-11-15 19:18:00,52.9,40.2,29.60,SSE,157,9.0,13.0,62,0.00,,---,0.00,0.00,VWS V14.01,2013-11-16 01:18:00,
2013-11-15 19:23:00,52.9,40.7,29.60,SSE,156,5.0,13.0,63,0.00,,---,0.00,0.00,VWS V14.01,2013-11-16 01:23:00,
2013-11-15 19:28:00,52.9,41.1,29.60,SSE,155,9.0,13.0,64,0.00,,---,0.00,0.00,VWS V14.01,2013-11-16 01:28:00,
2013-11-15 19:30:00,52.9,41.1,29.60,SSE,165,6.0,13.0,64,0.00,,---,0.00,0.00,VWS V14.01,2013-11-16 01:30:00,
2013-11-15 19:33:00,52.8,41.0,29.60,SSE,149,8.0,14.0,64,0.00,,---,0.00,0.00,VWS V14.01,2013-11-16 01:33:00,
2013-11-15 19:38:00,52.8,41.4,29.59,SE,145,12.0,15.0,65,0.00,,---,0.00,0.00,VWS V14.01,2013-11-16 01:38:00,
2013-11-15 19:43:00,52.8,41.4,29.59,SSE,154,7.0,15.0,65,0.00,,---,0.00,0.00,VWS V14.01,2013-11-16 01:43:00,
2013-11-15 19:48:00,52.8,41.8,29.59,SSE,162,6.0,15.0,66,0.00,,---,0.00,0.00,VWS V14.01,2013-11-16 01:48:00,
2013-11-15 19:53:00,52.8,41.8,29.59,SSE,164,8.0,15.0,66,0.00,,---,0.00,0.00,VWS V14.01,2013-11-16 01:53:00,
2013-11-15 19:58:00,52.9,42.3,29.59,South,184,8.0,15.0,67,0.00,,---,0.00,0.00,VWS V14.01,2013-11-16 01:58:00,
2013-11-15 20:00:00,52.9,42.3,29.59,SSE,168,6.0,15.0,67,0.00,,---,0.00,0.00,VWS V14.01,2013-11-16 02:00:00,
2013-11-15 20:03:00,52.9,42.3,29.58,SSE,151,10.0,11.0,67,0.00,,---,0.00,0.00,VWS V14.01,2013-11-16 02:03:00,
2013-11-15 20:08:00,53.2,42.9,29.58,South,176,10.0,12.0,68,0.00,,---,0.00,0.00,VWS V14.01,2013-11-16 02:08:00,
2013-11-15 20:13:00,53.5,43.2,29.58,South,170,11.0,16.0,68,0.00,,---,0.00,0.00,VWS V14.01,2013-11-16 02:13:00,
2013-11-15 20:18:00,53.8,43.5,29.58,SSE,163,9.0,17.0,68,0.00,,---,0.00,0.00,VWS V14.01,2013-11-16 02:18:00,
2013-11-15 20:23:00,53.9,43.6,29.58,SSE,153,13.0,17.0,68,0.00,,---,0.00,0.00,VWS V14.01,2013-11-16 02:23:00,
2013-11-15 20:28:00,54.1,43.8,29.58,South,171,16.0,18.0,68,0.00,,---,0.00,0.00,VWS V14.01,2013-11-16 02:28:00,
2013-11-15 20:30:00,54.2,43.9,29.58,South,172,13.0,19.0,68,0.00,,---,0.00,0.00,VWS V14.01,2013-11-16 02:30:00,
2013-11-15 20:33:00,54.2,43.9,29.58,SSE,161,14.0,16.0,68,0.00,,---,0.00,0.00,VWS V14.01,2013-11-16 02:33:00,
2013-11-15 20:38:00,54.4,44.1,29.58,SSE,156,13.0,22.0,68,0.00,,---,0.00,0.00,VWS V14.01,2013-11-16 02:38:00,
2013-11-15 20:43:00,54.5,44.2,29.58,South,169,14.0,22.0,68,0.00,,---,0.00,0.00,VWS V14.01,2013-11-16 02:43:00,
2013-11-15 20:48:00,54.8,44.1,29.58,SSW,193,17.0,22.0,67,0.00,,---,0.00,0.00,VWS V14.01,2013-11-16 02:48:00,
2013-11-15 20:53:00,55.0,44.3,29.58,South,186,18.0,22.0,67,0.00,,---,0.00,0.00,VWS V14.01,2013-11-16 02:53:00,
2013-11-15 20:58:00,55.1,44.3,29.58,SSE,161,15.0,22.0,67,0.00,,---,0.00,0.00,VWS V14.01,2013-11-16 02:58:00,
2013-11-15 21:00:00,55.1,44.3,29.58,SSE,158,19.0,22.0,67,0.00,,---,0.00,0.00,VWS V14.01,2013-11-16 03:00:00,
2013-11-15 21:03:00,55.3,44.5,29.58,South,191,8.0,28.0,67,0.00,,---,0.00,0.00,VWS V14.01,2013-11-16 03:03:00,
2013-11-15 21:08:00,55.3,44.5,29.57,South,175,26.0,28.0,67,0.00,,---,0.00,0.00,VWS V14.01,2013-11-16 03:08:00,
2013-11-15 21:13:00,55.6,44.8,29.57,South,188,24.0,29.0,67,0.00,,---,0.00,0.00,VWS V14.01,2013-11-16 03:13:00,
2013-11-15 21:18:00,55.7,44.9,29.57,SSE,168,9.0,29.0,67,0.00,,---,0.00,0.00,VWS V14.01,2013-11-16 03:18:00,
2013-11-15 21:23:00,55.6,44.8,29.57,SSE,168,15.0,29.0,67,0.00,,---,0.00,0.00,VWS V14.01,2013-11-16 03:23:00,
2013-11-15 21:28:00,55.7,44.9,29.57,SSE,166,14.0,29.0,67,0.00,,---,0.00,0.00,VWS V14.01,2013-11-16 03:28:00,
2013-11-15 21:30:00,55.7,44.9,29.57,South,184,15.0,29.0,67,0.00,,---,0.00,0.00,VWS V14.01,2013-11-16 03:30:00,
2013-11-15 21:33:00,55.9,45.1,29.57,SSW,213,17.0,31.0,67,0.00,,---,0.00,0.00,VWS V14.01,2013-11-16 03:33:00,
2013-11-15 21:38:00,55.9,45.1,29.57,South,182,13.0,31.0,67,0.00,,---,0.00,0.00,VWS V14.01,2013-11-16 03:38:00,
2013-11-15 21:43:00,55.9,45.1,29.57,SW,215,26.0,31.0,67,0.00,,---,0.00,0.00,VWS V14.01,2013-11-16 03:43:00,
2013-11-15 21:48:00,55.9,45.1,29.57,SSW,211,13.0,31.0,67,0.00,,---,0.00,0.00,VWS V14.01,2013-11-16 03:48:00,
2013-11-15 21:53:00,56.0,45.2,29.56,South,169,10.0,31.0,67,0.00,,---,0.00,0.00,VWS V14.01,2013-11-16 03:53:00,
2013-11-15 21:58:00,56.0,45.2,29.56,South,179,17.0,31.0,67,0.00,,---,0.00,0.00,VWS V14.01,2013-11-16 03:58:00,
2013-11-15 22:00:00,56.0,45.2,29.57,SSW,192,15.0,31.0,67,0.00,,---,0.00,0.00,VWS V14.01,2013-11-16 04:00:00,
2013-11-15 22:03:00,56.0,45.2,29.57,SSE,150,12.0,31.0,67,0.00,,---,0.00,0.00,VWS V14.01,2013-11-16 04:03:00,
2013-11-15 22:08:00,56.2,45.4,29.56,ESE,116,8.0,31.0,67,0.00,,---,0.00,0.00,VWS V14.01,2013-11-16 04:08:00,
2013-11-15 22:13:00,56.3,45.1,29.56,SSE,155,18.0,31.0,66,0.00,,---,0.00,0.00,VWS V14.01,2013-11-16 04:13:00,
2013-11-15 22:18:00,56.3,45.1,29.56,SSW,194,21.0,31.0,66,0.00,,---,0.00,0.00,VWS V14.01,2013-11-16 04:18:00,
2013-11-15 22:23:00,56.5,45.3,29.56,South,171,14.0,31.0,66,0.00,,---,0.00,0.00,VWS V14.01,2013-11-16 04:23:00,
2013-11-15 22:28:00,56.5,45.3,29.56,South,189,26.0,31.0,66,0.00,,---,0.00,0.00,VWS V14.01,2013-11-16 04:28:00,
2013-11-15 22:30:00,56.5,45.3,29.56,South,169,18.0,31.0,66,0.00,,---,0.00,0.00,VWS V14.01,2013-11-16 04:30:00,
2013-11-15 22:33:00,56.3,45.1,29.56,South,174,12.0,24.0,66,0.00,,---,0.00,0.00,VWS V14.01,2013-11-16 04:33:00,
2013-11-15 22:38:00,56.2,45.4,29.56,SW,226,21.0,25.0,67,0.00,,---,0.00,0.00,VWS V14.01,2013-11-16 04:38:00,
2013-11-15 22:43:00,56.2,45.4,29.55,SSW,213,25.0,29.0,67,0.00,,---,0.00,0.00,VWS V14.01,2013-11-16 04:43:00,
2013-11-15 22:48:00,56.2,45.4,29.55,ESE,123,6.0,29.0,67,0.00,,---,0.00,0.00,VWS V14.01,2013-11-16 04:48:00,
2013-11-15 22:53:00,56.2,45.4,29.55,South,170,12.0,29.0,67,0.00,,---,0.00,0.00,VWS V14.01,2013-11-16 04:53:00,
2013-11-15 22:58:00,56.0,45.2,29.54,SSE,153,11.0,29.0,67,0.00,,---,0.00,0.00,VWS V14.01,2013-11-16 04:58:00,
2013-11-15 23:00:00,56.0,45.2,29.54,SSE,155,21.0,29.0,67,0.00,,---,0.00,0.00,VWS V14.01,2013-11-16 05:00:00,
2013-11-15 23:01:00,56.0,45.2,29.54,SSW,192,9.0,26.0,67,0.00,,---,0.00,0.00,VWS V14.01,2013-11-16 05:01:00,
2013-11-15 23:02:00,56.0,45.2,29.54,South,180,21.0,30.0,67,0.00,,---,0.00,0.00,VWS V14.01,2013-11-16 05:02:00,
2013-11-15 23:07:00,56.0,45.2,29.54,SSW,198,20.0,30.0,67,0.00,,---,0.00,0.00,VWS V14.01,2013-11-16 05:07:00,
2013-11-15 23:12:00,55.9,45.1,29.54,SSW,192,19.0,30.0,67,0.00,,---,0.00,0.00,VWS V14.01,2013-11-16 05:12:00,
2013-11-15 23:17:00,55.9,45.5,29.54,SSW,205,13.0,30.0,68,0.00,,---,0.00,0.00,VWS V14.01,2013-11-16 05:17:00,
2013-11-15 23:22:00,55.7,45.3,29.54,SSE,155,22.0,30.0,68,0.00,,---,0.00,0.00,VWS V14.01,2013-11-16 05:22:00,
2013-11-15 23:27:00,55.6,45.2,29.54,SSE,155,12.0,30.0,68,0.00,,---,0.00,0.00,VWS V14.01,2013-11-16 05:27:00,
2013-11-15 23:30:00,55.6,45.6,29.54,South,175,14.0,30.0,69,0.00,,---,0.00,0.00,VWS V14.01,2013-11-16 05:30:00,
2013-11-15 23:32:00,55.6,45.6,29.54,SSE,150,17.0,26.0,69,0.00,,---,0.00,0.00,VWS V14.01,2013-11-16 05:32:00,
2013-11-15 23:37:00,55.4,45.4,29.54,South,176,22.0,29.0,69,0.00,,---,0.00,0.00,VWS V14.01,2013-11-16 05:37:00,
2013-11-15 23:42:00,55.4,45.4,29.54,SSE,164,17.0,29.0,69,0.00,,---,0.00,0.00,VWS V14.01,2013-11-16 05:42:00,
2013-11-15 23:47:00,55.3,45.3,29.54,South,176,14.0,29.0,69,0.00,,---,0.00,0.00,VWS V14.01,2013-11-16 05:47:00,
2013-11-15 23:52:00,55.4,45.4,29.54,SSE,162,16.0,29.0,69,0.00,,---,0.00,0.00,VWS V14.01,2013-11-16 05:52:00,
2013-11-15 23:57:00,55.4,45.4,29.53,South,170,19.0,29.0,69,0.00,,---,0.00,0.00,VWS V14.01,2013-11-16 05:57:00,